User: anonymous   Login
Location: UBC Liquid-Mirror Observatory
(49.2876°N, 122.5728°W)
Time: 16:14:45
(UTC-07:00)
Language:

KITSAT 1 - Orbit

View from above orbital plane
View from above orbital plane
View from above satellite
View from above satellite

Ground track
Ground track

The orbit data is extracted from the following two-line orbital elements,

1 22077U 92052B   16236.93731037 -.00000053 +00000-0 +33949-4 0  9998
2 22077 066.0821 229.1905 0008734 212.3551 164.2301 12.86514716128786
Epoch (UTC): 23 August 2016 22:29:43
Eccentricity: 0.0008734
inclination: 66.0821°
perigee height: 1308 km
apogee height: 1322 km
right ascension of ascending node: 229.1905°
argument of perigee: 212.3551°
revolutions per day: 12.86514716
mean anomaly at epoch: 164.2301°
orbit number at epoch: 12878

The dashed part of the orbit path shows where the satellite is in the earth's shadow,  

DLR